Find Lyra-1

NORAD ID: 62664 Int'l Des: 2025-009 Owner: ECHOAU Country: AU operational
LEOCIRCULARRETROGRADESSO

Live Position

Loading 3D Globe...

About Lyra-1

Description loading...

Upcoming Passes

Passes for default location (London). Set your location on the main map for personalized predictions.

Altitude History

Loading altitude history...

Two-Line Element Set

1 62664U 25009BH 26104.13975177 .00004739 00000-0 23777-3 0 9995
2 62664 97.4005 180.1147 0010193 63.1201 297.1073 15.17748420 68709
Epoch: Apr 14, 2026 • Age: 8 hours

Current Status

Altitude 518.9 km
Velocity 7.60 km/s
Sub-Earth Point -18.93°S, 172.6°E
Launch Date Jan 14, 2025
Age 1.2 years
Type other

Technical Details

Classification Payload
Mass 74.00 kg
Dry Mass 74.00 kg
Total Mass 74.00 kg
Length 0.60 m
Diameter 0.50 m
Span 2.00 m
Shape Box
Manufacturer ADIG
Bus Type Corvus XL
Phase Status In Orbit
Owner/State ECHOAU/AU

Most Searched